STARLINK-1262, 45366

Orbit data source: Space-Track

STARLINK-1262, 45366 is a payload satellite owned by SpaceX/Seattle (US) in LEO that was launched on Wed, 18 Mar 2020 UTC via an FALCON 9 launch vehicle from the Air Force Eastern Test Range (AFETR). Payload-class satellites include a variety of spacecraft equipped with specific instruments for various scientific and technological missions. These include communications satellites like Starlink; space stations such as the ISS; scientific satellites like the Hubble; Earth observation satellites from companies like Planet Labs, Umbra, and HawkEye 360; GPS; miniature CubeSats for education and research; and military/defense satellites.

Loading next visibility...
Identifier
45366, 2020-019G
Orbit
LEO
Country
Flag of USUS
Related business
Manufacturer
SpaceX/Seattle
Mission
Partially operational Commercial Communications
Bus & Motor
STARLINK, Unknown motor
Mass
260 kg wet, ~248 kg dry
Launch date (UTC)
2020-03-18 (6 years ago)
Launch vehicle
FALCON 9
Launch site
Air Force Eastern Test Range (AFETR)
Object type
Payload
Rocket body
Debris
Shape & HBR
Box + 1 Pan, 10.1 m
Radar Cross Section
13.562 m², Large (>1 m²)

Expand to show TLE details & history
Last TLE update: 22 hours ago

TLE from 22 hours ago
0 STARLINK-1262
1 45366U 20019G   26125.64036065  .00043586  00000-0  14186-2 0  9990
2 45366  53.1582 260.7151 0001882 337.6874  22.4045 15.31461080338470
Epoch: 2026-05-05T15:22Z
TLE epoch observation values (Epoch: 2026-05-05T15:22:07.160Z)
Latitude
-0.00002°
Longitude
166.67295°
Altitude
471.161 km
Speed
7.632 km/s
True Right ascension
17h 22m 51s
True Declination
0° 00' 00"
Sunlit
Object was in full shadow at epoch
Visualization orbit readout
Latitude
Unknown
Longitude
Unknown
Altitude
Unknown
Speed
Unknown
Apparent Right ascension
Unknown
Apparent Declination
Unknown
Sunlit
N/A
Visualization observer readout
Local Sidereal Time
20:55:00
Azimuth
Unknown
Elevation
Unknown
Doppler factor
Unknown
Orbital elements
Apogee altitude
472.998 km
Perigee altitude
470.42 km
Semi-major axis
6,849.846 km
Eccentricity
0.00019
Inclination
53.1582°
RAAN
260.7151°
Arg. of periapsis
337.6874°
True anomaly
22.41272°
Mean anomaly
22.4045°
Eccentric anomaly
22.40861°
Mean motion
3.82844 °/min
Orbital period
94.03 mins
BSTAR
0.0014186
Loading maneuver chart data...
Computing Atmospheric mass density...
Loading historical data...
Loading historical data...
Loading historical data...
Loading historical data...
Loading historical data...
Loading historical data...
Loading historical data...

Documentation

Showing up to 5 results
|